SRA007 KLAS-KLAX

Flight info

Callsign SRA007
Flight time 0h 46m
Altitude 28000
Route RADYR2 BLAQQ SHTNR ANJLL4
Aircraft B739/M-SDE2E3FGHIRWXY/LB1

Departure

Time 2026-05-04 16:16
Airport Harry Reid International Airport (KLAS)

Arrival

Time 2026-05-04 17:02
Airport Los Angeles International Airport (KLAX)
Time Latitude Longitude Altitude Speed Heading
2026-05-04 15:24 36.09121 -115.15391 2100 ft 0 kts 90°
2026-05-04 16:02 36.09121 -115.15397 2101 ft 4 kts 90°
2026-05-04 16:03 36.09121 -115.15430 2101 ft 4 kts 90°
2026-05-04 16:03 36.09122 -115.15462 2101 ft 2 kts 91°
2026-05-04 16:03 36.09119 -115.15490 2103 ft 4 kts 47°
2026-05-04 16:03 36.09097 -115.15502 2103 ft 4 kts
2026-05-04 16:04 36.09085 -115.15503 2103 ft 2 kts
2026-05-04 16:04 36.09084 -115.15503 2105 ft 1 kts
2026-05-04 16:09 36.09099 -115.15503 2104 ft 6 kts
2026-05-04 16:09 36.09150 -115.15503 2102 ft 11 kts 359°
2026-05-04 16:10 36.09310 -115.15446 2099 ft 12 kts 25°
2026-05-04 16:11 36.09544 -115.15312 2091 ft 15 kts 25°
2026-05-04 16:11 36.09607 -115.15277 2089 ft 15 kts 25°
2026-05-04 16:12 36.09806 -115.15237 2081 ft 0 kts 293°
2026-05-04 16:13 36.09811 -115.15251 2082 ft 4 kts 293°
2026-05-04 16:13 36.09843 -115.15338 2084 ft 9 kts 290°
2026-05-04 16:14 36.09815 -115.15383 2085 ft 0 kts 202°
2026-05-04 16:14 36.09701 -115.15447 2087 ft 48 kts 205°
2026-05-04 16:15 36.07377 -115.16782 2588 ft 158 kts 202°
2026-05-04 16:16 36.05349 -115.17975 3799 ft 163 kts 207°
2026-05-04 16:16 36.01797 -115.20085 4751 ft 222 kts 205°
2026-05-04 16:17 35.98746 -115.21727 5352 ft 257 kts 199°
2026-05-04 16:18 35.93638 -115.24007 7716 ft 264 kts 199°
2026-05-04 16:18 35.91926 -115.24775 8528 ft 265 kts 199°
2026-05-04 16:19 35.86571 -115.27190 10517 ft 287 kts 200°
2026-05-04 16:19 35.82522 -115.29023 10847 ft 332 kts 200°
2026-05-04 16:20 35.77856 -115.31134 11461 ft 359 kts 200°
2026-05-04 16:20 35.73116 -115.33275 12682 ft 365 kts 201°
2026-05-04 16:21 35.65830 -115.36564 14530 ft 374 kts 202°
2026-05-04 16:22 35.60890 -115.38630 15806 ft 380 kts 193°
2026-05-04 16:22 35.52791 -115.38237 17564 ft 394 kts 181°
2026-05-04 16:23 35.44535 -115.37629 19047 ft 401 kts 182°
2026-05-04 16:24 35.33294 -115.36758 20950 ft 409 kts 183°
2026-05-04 16:25 35.27586 -115.36229 21833 ft 414 kts 183°
2026-05-04 16:26 35.16018 -115.34992 23676 ft 419 kts 183°
2026-05-04 16:26 35.07335 -115.33860 25164 ft 413 kts 183°
2026-05-04 16:27 35.01668 -115.33028 25876 ft 409 kts 183°
2026-05-04 16:28 34.93276 -115.31750 25905 ft 409 kts 183°
2026-05-04 16:28 34.86345 -115.35277 25930 ft 369 kts 238°
2026-05-04 16:29 34.83012 -115.47064 25923 ft 376 kts 258°
2026-05-04 16:30 34.82139 -115.56533 25936 ft 374 kts 258°
2026-05-04 16:31 34.81529 -115.62772 25939 ft 373 kts 258°
2026-05-04 16:31 34.80574 -115.72144 25942 ft 373 kts 258°
2026-05-04 16:32 34.79607 -115.81538 25944 ft 373 kts 257°
2026-05-04 16:33 34.78945 -115.87895 26142 ft 384 kts 257°
2026-05-04 16:33 34.78284 -115.94269 27097 ft 379 kts 257°
2026-05-04 16:34 34.77400 -116.00459 27926 ft 363 kts 245°
2026-05-04 16:34 34.76328 -116.03227 27931 ft 363 kts 238°
2026-05-04 16:35 34.71382 -116.10222 27930 ft 366 kts 227°
2026-05-04 16:35 34.66057 -116.16885 27923 ft 366 kts 227°
2026-05-04 16:36 34.64321 -116.19076 27926 ft 365 kts 227°
2026-05-04 16:36 34.60784 -116.23556 27926 ft 365 kts 227°
2026-05-04 16:37 34.57300 -116.27972 27919 ft 364 kts 227°
2026-05-04 16:37 34.55544 -116.30196 27922 ft 363 kts 227°
2026-05-04 16:37 34.52048 -116.34621 27926 ft 362 kts 227°
2026-05-04 16:38 34.48560 -116.39030 27920 ft 363 kts 227°
2026-05-04 16:39 34.43337 -116.45621 27929 ft 362 kts 227°
2026-05-04 16:39 34.40435 -116.50564 27926 ft 364 kts 241°
2026-05-04 16:40 34.38216 -116.56087 27922 ft 364 kts 241°
2026-05-04 16:40 34.35969 -116.61589 27919 ft 364 kts 240°
2026-05-04 16:41 34.33702 -116.67083 27931 ft 364 kts 240°
2026-05-04 16:41 34.30455 -116.75130 27927 ft 336 kts 241°
2026-05-04 16:42 34.27518 -116.82450 27937 ft 300 kts 240°
2026-05-04 16:43 34.25785 -116.86751 27920 ft 268 kts 240°
2026-05-04 16:43 34.24240 -116.90578 27953 ft 238 kts 240°
2026-05-04 16:43 34.23535 -116.92323 27933 ft 223 kts 240°
2026-05-04 16:44 34.20942 -116.98802 27645 ft 233 kts 244°
2026-05-04 16:45 34.19916 -117.02580 26854 ft 236 kts 246°
2026-05-04 16:46 34.18300 -117.08659 24098 ft 288 kts 248°
2026-05-04 16:46 34.16968 -117.13593 21908 ft 321 kts 249°
2026-05-04 16:47 34.15582 -117.18697 20850 ft 316 kts 249°
2026-05-04 16:47 34.14203 -117.23705 19804 ft 315 kts 249°
2026-05-04 16:48 34.12140 -117.31191 18129 ft 314 kts 250°
2026-05-04 16:48 34.11447 -117.33701 17540 ft 314 kts 250°
2026-05-04 16:49 34.10097 -117.38673 16429 ft 312 kts 251°
2026-05-04 16:49 34.08854 -117.43695 15378 ft 311 kts 252°
2026-05-04 16:50 34.07619 -117.48645 14388 ft 309 kts 252°
2026-05-04 16:50 34.06661 -117.53581 13784 ft 297 kts 258°
2026-05-04 16:51 34.06016 -117.58267 12800 ft 299 kts 258°
2026-05-04 16:51 34.05678 -117.60708 12386 ft 297 kts 258°
2026-05-04 16:51 34.04976 -117.65642 11637 ft 298 kts 258°
2026-05-04 16:52 34.04255 -117.70589 10899 ft 298 kts 258°
2026-05-04 16:52 34.03895 -117.73035 10541 ft 295 kts 258°
2026-05-04 16:53 34.03179 -117.77868 10009 ft 284 kts 258°
2026-05-04 16:53 34.02178 -117.84598 8775 ft 268 kts 259°
2026-05-04 16:54 34.01849 -117.86795 8429 ft 263 kts 259°
2026-05-04 16:55 34.00582 -117.95239 7142 ft 253 kts 259°
2026-05-04 16:55 33.99957 -117.99397 6527 ft 251 kts 259°
2026-05-04 16:56 33.99337 -118.03512 5879 ft 250 kts 260°
2026-05-04 16:56 33.98407 -118.09675 4921 ft 247 kts 262°
2026-05-04 16:57 33.98165 -118.11681 4616 ft 243 kts 262°
2026-05-04 16:57 33.97735 -118.15643 4012 ft 235 kts 263°
2026-05-04 16:58 33.97234 -118.20491 3616 ft 199 kts 263°
2026-05-04 16:58 33.97070 -118.22093 3316 ft 193 kts 262°
2026-05-04 16:59 33.96748 -118.25251 3027 ft 192 kts 262°
2026-05-04 17:00 33.96080 -118.31799 1483 ft 180 kts 261°
2026-05-04 17:00 33.95654 -118.35896 816 ft 155 kts 262°
2026-05-04 17:01 33.95406 -118.38270 452 ft 135 kts 262°
2026-05-04 17:01 33.95186 -118.40437 99 ft 125 kts 262°
2026-05-04 17:02 33.95070 -118.41572 93 ft 22 kts 263°
2026-05-04 17:02 33.95049 -118.41779 94 ft 17 kts 263°
2026-05-04 17:03 33.95029 -118.41962 92 ft 24 kts 262°
2026-05-04 17:03 33.94977 -118.42140 95 ft 23 kts 237°
2026-05-04 17:03 33.94729 -118.42275 95 ft 18 kts 173°
2026-05-04 17:04 33.94702 -118.42038 95 ft 6 kts 83°
2026-05-04 17:04 33.94703 -118.42034 93 ft 0 kts 83°
2026-05-04 17:05 33.94709 -118.41967 92 ft 7 kts 83°
2026-05-04 17:05 33.94717 -118.41901 92 ft 6 kts 82°
2026-05-04 17:06 33.94723 -118.41822 92 ft 6 kts 84°
2026-05-04 17:06 33.94729 -118.41777 95 ft 6 kts 82°
2026-05-04 17:07 33.94730 -118.41760 93 ft 0 kts 83°
2026-05-04 17:08 33.94731 -118.41756 94 ft 1 kts 83°
2026-05-04 17:08 33.94733 -118.41735 95 ft 1 kts 84°
2026-05-04 17:08 33.94734 -118.41725 93 ft 1 kts 84°
2026-05-04 17:09 33.94735 -118.41713 94 ft 3 kts 84°
2026-05-04 17:09 33.94742 -118.41640 92 ft 14 kts 83°
2026-05-04 17:09 33.94749 -118.41569 96 ft 14 kts 83°
2026-05-04 17:10 33.94759 -118.41474 93 ft 13 kts 82°